| time (UTC) | temp F | wind direction | speed MPH | gust MPH | rain 1hr in | rain 24hr in | rain mn in | humidity % | barometer mb |
| 20260905050516 | 71 | 0 | 2.0 | 4.0 | 0.00 | 0.00 | 0.00 | 88 | 1014.4 |
| 20260905045517 | 72 | 0 | 1.0 | 3.0 | 0.00 | 0.00 | 0.00 | 88 | 1014.5 |
| 20260905044517 | 72 | 0 | 1.0 | 2.0 | 0.00 | 0.00 | 0.00 | 88 | 1014.6 |
| 20260905043517 | 72 | 0 | 1.0 | 2.0 | 0.00 | 0.00 | 0.00 | 87 | 1014.5 |
| 20260905042517 | 73 | 45 | 1.0 | 3.0 | 0.00 | 0.00 | 0.00 | 86 | 1014.9 |
| 20260905041517 | 73 | 90 | 2.0 | 5.0 | 0.00 | 0.00 | 0.00 | 86 | 1014.7 |
| 20260905040517 | 73 | 113 | 2.0 | 3.0 | 0.00 | 0.00 | 0.00 | 86 | 1014.5 |
| 20260905035517 | 74 | 90 | 3.0 | 6.0 | 0.00 | 0.00 | 0.00 | 85 | 1014.6 |
| 20260905034517 | 74 | 90 | 3.0 | 6.0 | 0.00 | 0.00 | 0.00 | 86 | 1014.5 |
| 20260905033537 | 74 | 90 | 4.0 | 7.0 | 0.00 | 0.00 | 0.00 | 86 | 1014.3 |
| 20260905032517 | 74 | 113 | 3.0 | 7.0 | 0.00 | 0.00 | 0.00 | 86 | 1014.4 |
| 20260905031557 | 74 | 90 | 3.0 | 5.0 | 0.00 | 0.00 | 0.00 | 86 | 1014.3 |
| 20260905030517 | 74 | 90 | 2.0 | 5.0 | 0.00 | 0.00 | 0.00 | 86 | 1014.3 |
| 20260905025517 | 74 | 90 | 2.0 | 5.0 | 0.00 | 0.00 | 0.00 | 87 | 1014.1 |
| 20260905024517 | 74 | 0 | 2.0 | 4.0 | 0.00 | 0.00 | 0.00 | 88 | 1014.0 |
| 20260905023517 | 74 | 0 | 1.0 | 3.0 | 0.00 | 0.00 | 0.00 | 88 | 1013.8 |
| 20260905022517 | 74 | 0 | 1.0 | 2.0 | 0.00 | 0.00 | 0.00 | 87 | 1013.7 |
| 20260905021517 | 75 | 68 | 1.0 | 1.0 | 0.00 | 0.00 | 0.00 | 87 | 1013.6 |
| 20260905020517 | 75 | 90 | 1.0 | 3.0 | 0.00 | 0.00 | 0.00 | 87 | 1013.4 |
| 20260905015517 | 75 | 68 | 2.0 | 3.0 | 0.00 | 0.00 | 0.00 | 87 | 1013.4 |
| 20260905014537 | 76 | 68 | 1.0 | 2.0 | 0.00 | 0.00 | 0.00 | 86 | 1013.2 |
| 20260905013517 | 76 | 0.0 | 1.0 | 0.00 | 0.00 | 0.00 | 86 | 1013.2 | |
| 20260905012517 | 77 | 68 | 1.0 | 2.0 | 0.00 | 0.00 | 0.00 | 85 | 1013.0 |
| 20260905011517 | 77 | 0 | 1.0 | 2.0 | 0.00 | 0.00 | 0.00 | 85 | 1013.0 |
| 20260905010536 | 78 | 0 | 1.0 | 2.0 | 0.00 | 0.00 | 0.00 | 84 | 1012.9 |
| 20260905005516 | 78 | 0 | 1.0 | 3.0 | 0.00 | 0.00 | 0.00 | 84 | 1013.0 |
| 20260905004536 | 79 | 0 | 2.0 | 3.0 | 0.00 | 0.00 | 0.00 | 83 | 1012.9 |
| 20260905003516 | 80 | 0 | 2.0 | 3.0 | 0.00 | 0.00 | 0.00 | 82 | 1012.7 |
| 20260905002517 | 81 | 0 | 2.0 | 3.0 | 0.00 | 0.00 | 0.00 | 81 | 1012.7 |
| 20260905001516 | 82 | 23 | 3.0 | 5.0 | 0.00 | 0.00 | 0.00 | 80 | 1012.8 |
| 20260905000516 | 83 | 0 | 2.0 | 4.0 | 0.00 | 0.00 | 0.00 | 78 | 1012.9 |
| 20260904235516 | 83 | 23 | 3.0 | 5.0 | 0.00 | 0.00 | 0.00 | 77 | 1012.8 |
| 20260904234516 | 84 | 45 | 3.0 | 5.0 | 0.00 | 0.00 | 0.00 | 76 | 1012.8 |
| 20260904233516 | 85 | 23 | 3.0 | 5.0 | 0.00 | 0.00 | 0.00 | 76 | 1012.7 |
| 20260904232516 | 85 | 45 | 4.0 | 6.0 | 0.00 | 0.00 | 0.00 | 75 | 1012.8 |
| 20260904231516 | 85 | 23 | 3.0 | 5.0 | 0.00 | 0.00 | 0.00 | 75 | 1012.8 |
| 20260904230516 | 86 | 23 | 4.0 | 6.0 | 0.00 | 0.00 | 0.00 | 74 | 1012.7 |
| 20260904225517 | 86 | 23 | 4.0 | 6.0 | 0.00 | 0.00 | 0.00 | 75 | 1012.6 |
| 20260904224516 | 86 | 45 | 4.0 | 8.0 | 0.00 | 0.00 | 0.00 | 74 | 1012.6 |
| 20260904223516 | 87 | 0 | 4.0 | 6.0 | 0.00 | 0.00 | 0.00 | 74 | 1012.5 |
| 20260904222516 | 87 | 0 | 4.0 | 7.0 | 0.00 | 0.00 | 0.00 | 74 | 1012.4 |
| 20260904221516 | 87 | 0 | 4.0 | 6.0 | 0.00 | 0.00 | 0.00 | 73 | 1012.5 |
| 20260904220516 | 86 | 45 | 5.0 | 8.0 | 0.00 | 0.00 | 0.00 | 74 | 1012.5 |
| 20260904215516 | 87 | 23 | 4.0 | 7.0 | 0.00 | 0.00 | 0.00 | 75 | 1012.4 |
| 20260904214516 | 87 | 23 | 5.0 | 8.0 | 0.00 | 0.00 | 0.00 | 74 | 1012.4 |
| 20260904213516 | 87 | 0 | 4.0 | 8.0 | 0.00 | 0.00 | 0.00 | 76 | 1012.4 |
| 20260904212516 | 87 | 0 | 4.0 | 7.0 | 0.00 | 0.00 | 0.00 | 75 | 1012.4 |
| 20260904211516 | 87 | 45 | 4.0 | 8.0 | 0.00 | 0.00 | 0.00 | 75 | 1012.4 |
| 20260904210556 | 87 | 45 | 5.0 | 7.0 | 0.00 | 0.00 | 0.00 | 76 | 1012.3 |
| 20260904205516 | 87 | 0 | 4.0 | 6.0 | 0.00 | 0.00 | 0.00 | 78 | 1012.4 |
| 20260904204516 | 86 | 23 | 4.0 | 8.0 | 0.00 | 0.00 | 0.00 | 78 | 1012.4 |
| 20260904203516 | 86 | 23 | 4.0 | 8.0 | 0.00 | 0.00 | 0.00 | 76 | 1012.5 |
| 20260904202516 | 85 | 23 | 6.0 | 10.0 | 0.00 | 0.00 | 0.00 | 77 | 1012.4 |
| 20260904201516 | 86 | 45 | 4.0 | 7.0 | 0.00 | 0.00 | 0.00 | 77 | 1012.3 |
| 20260904200516 | 85 | 45 | 6.0 | 9.0 | 0.00 | 0.00 | 0.00 | 78 | 1012.4 |
| 20260904195516 | 85 | 45 | 5.0 | 8.0 | 0.00 | 0.00 | 0.00 | 80 | 1012.4 |
| 20260904194516 | 85 | 45 | 7.0 | 11.0 | 0.00 | 0.00 | 0.00 | 80 | 1012.3 |
| 20260904193516 | 84 | 45 | 6.0 | 10.0 | 0.00 | 0.00 | 0.00 | 79 | 1012.2 |
| 20260904192516 | 85 | 23 | 7.0 | 11.0 | 0.00 | 0.00 | 0.00 | 79 | 1012.3 |
| 20260904191536 | 85 | 23 | 6.0 | 9.0 | 0.00 | 0.00 | 0.00 | 80 | 1012.3 |
| 20260904190516 | 86 | 23 | 5.0 | 9.0 | 0.00 | 0.00 | 0.00 | 79 | 1012.3 |
| 20260904185516 | 86 | 45 | 6.0 | 9.0 | 0.00 | 0.00 | 0.00 | 79 | 1012.3 |
| 20260904184516 | 86 | 23 | 6.0 | 9.0 | 0.00 | 0.00 | 0.00 | 77 | 1012.4 |
| 20260904183536 | 87 | 45 | 6.0 | 11.0 | 0.00 | 0.00 | 0.00 | 76 | 1012.3 |
| 20260904182516 | 87 | 0 | 4.0 | 8.0 | 0.00 | 0.00 | 0.00 | 75 | 1012.3 |
| 20260904181516 | 88 | 23 | 4.0 | 8.0 | 0.00 | 0.00 | 0.00 | 75 | 1012.3 |
| 20260904180516 | 87 | 0 | 5.0 | 9.0 | 0.00 | 0.00 | 0.00 | 76 | 1012.2 |
| 20260904175516 | 88 | 45 | 5.0 | 10.0 | 0.00 | 0.00 | 0.00 | 75 | 1012.1 |
| 20260904174516 | 88 | 45 | 4.0 | 8.0 | 0.00 | 0.00 | 0.00 | 75 | 1012.1 |
| 20260904173516 | 88 | 0 | 4.0 | 7.0 | 0.00 | 0.00 | 0.00 | 74 | 1012.2 |
| 20260904172516 | 88 | 45 | 3.0 | 6.0 | 0.00 | 0.00 | 0.00 | 74 | 1012.2 |
| 20260904171516 | 87 | 23 | 3.0 | 7.0 | 0.00 | 0.00 | 0.00 | 75 | 1012.1 |
| 20260904170516 | 87 | 68 | 3.0 | 7.0 | 0.00 | 0.00 | 0.00 | 76 | 1012.0 |
| 20260904165515 | 87 | 338 | 3.0 | 8.0 | 0.00 | 0.00 | 0.00 | 75 | 1012.0 |
| 20260904164516 | 86 | 68 | 3.0 | 5.0 | 0.00 | 0.00 | 0.00 | 76 | 1011.8 |
| 20260904163535 | 86 | 45 | 2.0 | 5.0 | 0.00 | 0.00 | 0.00 | 76 | 1011.8 |
| 20260904162515 | 86 | 45 | 2.0 | 6.0 | 0.00 | 0.00 | 0.00 | 77 | 1011.6 |
| 20260904161516 | 85 | 23 | 2.0 | 4.0 | 0.00 | 0.00 | 0.00 | 76 | 1011.6 |
| 20260904160516 | 85 | 270 | 1.0 | 3.0 | 0.00 | 0.00 | 0.00 | 77 | 1011.5 |
| 20260904155515 | 85 | 90 | 1.0 | 3.0 | 0.00 | 0.00 | 0.00 | 77 | 1011.5 |
| 20260904154515 | 85 | 68 | 1.0 | 3.0 | 0.00 | 0.00 | 0.00 | 77 | 1011.5 |
| 20260904153515 | 84 | 338 | 1.0 | 2.0 | 0.00 | 0.01 | 0.00 | 80 | 1011.4 |
| 20260904152516 | 83 | 315 | 1.0 | 3.0 | 0.00 | 0.01 | 0.00 | 82 | 1011.5 |
| 20260904151516 | 82 | 338 | 2.0 | 4.0 | 0.00 | 0.01 | 0.00 | 81 | 1011.4 |
| 20260904150515 | 82 | 0 | 2.0 | 3.0 | 0.00 | 0.01 | 0.00 | 81 | 1011.3 |
| 20260904145515 | 81 | 0 | 1.0 | 2.0 | 0.00 | 0.01 | 0.00 | 83 | 1011.3 |
| 20260904144515 | 80 | 315 | 2.0 | 4.0 | 0.00 | 0.01 | 0.00 | 83 | 1011.2 |
| 20260904143516 | 80 | 293 | 2.0 | 4.0 | 0.00 | 0.01 | 0.00 | 83 | 1011.2 |
| 20260904142515 | 80 | 248 | 2.0 | 3.0 | 0.00 | 0.01 | 0.00 | 84 | 1011.2 |
| 20260904141516 | 79 | 203 | 1.0 | 3.0 | 0.00 | 0.01 | 0.00 | 85 | 1011.2 |
| 20260904140515 | 79 | 248 | 2.0 | 3.0 | 0.00 | 0.01 | 0.00 | 85 | 1011.2 |
| 20260904135515 | 78 | 225 | 2.0 | 4.0 | 0.00 | 0.01 | 0.00 | 86 | 1011.0 |
| 20260904134515 | 77 | 225 | 2.0 | 4.0 | 0.00 | 0.01 | 0.00 | 87 | 1011.0 |
| 20260904133535 | 77 | 225 | 1.0 | 4.0 | 0.00 | 0.01 | 0.00 | 88 | 1011.1 |
| 20260904132515 | 76 | 203 | 2.0 | 3.0 | 0.00 | 0.01 | 0.00 | 89 | 1010.9 |
| 20260904131535 | 76 | 203 | 1.0 | 2.0 | 0.00 | 0.01 | 0.00 | 89 | 1010.9 |
| 20260904130515 | 75 | 0.0 | 2.0 | 0.00 | 0.01 | 0.00 | 89 | 1011.1 | |
| 20260904125515 | 74 | 0.0 | 0.0 | 0.00 | 0.01 | 0.00 | 91 | 1010.8 | |
| 20260904124515 | 73 | 0.0 | 0.0 | 0.00 | 0.01 | 0.00 | 92 | 1010.7 | |
| 20260904123515 | 72 | 0.0 | 2.0 | 0.00 | 0.01 | 0.00 | 92 | 1010.7 | |
| 20260904122515 | 71 | 0.0 | 2.0 | 0.00 | 0.01 | 0.00 | 92 | 1010.5 | |
| 20260904121537 | 71 | 0.0 | 2.0 | 0.00 | 0.01 | 0.00 | 92 | 1010.5 | |
| 20260904120517 | 70 | 0.0 | 1.0 | 0.00 | 0.01 | 0.00 | 92 | 1010.3 | |
| 20260904115517 | 70 | 0.0 | 1.0 | 0.00 | 0.01 | 0.00 | 92 | 1010.2 | |
| 20260904114537 | 70 | 0.0 | 2.0 | 0.00 | 0.01 | 0.00 | 91 | 1010.1 | |
| 20260904113537 | 71 | 0.0 | 2.0 | 0.00 | 0.02 | 0.00 | 91 | 1010.2 | |
| 20260904112517 | 71 | 0.0 | 1.0 | 0.00 | 0.02 | 0.00 | 91 | 1010.2 | |
| 20260904111517 | 71 | 0.0 | 1.0 | 0.00 | 0.03 | 0.00 | 91 | 1010.1 | |
| 20260904110517 | 71 | 0.0 | 2.0 | 0.00 | 0.10 | 0.00 | 91 | 1010.1 | |
| 20260904105517 | 71 | 0.0 | 2.0 | 0.00 | 0.13 | 0.00 | 91 | 1010.0 | |
| 20260904104517 | 72 | 0.0 | 2.0 | 0.00 | 0.15 | 0.00 | 91 | 1010.0 | |
| 20260904103517 | 72 | 0.0 | 2.0 | 0.00 | 0.16 | 0.00 | 91 | 1009.9 | |
| 20260904102517 | 72 | 225 | 1.0 | 2.0 | 0.00 | 0.16 | 0.00 | 91 | 1010.0 |
| 20260904101517 | 72 | 0.0 | 2.0 | 0.00 | 0.16 | 0.00 | 90 | 1009.9 | |
| 20260904100537 | 73 | 225 | 1.0 | 2.0 | 0.00 | 0.16 | 0.00 | 90 | 1009.8 |
| 20260904095517 | 73 | 0.0 | 0.0 | 0.00 | 0.23 | 0.00 | 89 | 1010.0 | |
| 20260904094517 | 73 | 0.0 | 0.0 | 0.00 | 0.29 | 0.00 | 89 | 1009.7 | |
| 20260904093517 | 74 | 0.0 | 2.0 | 0.00 | 0.29 | 0.00 | 89 | 1009.6 | |
| 20260904092537 | 74 | 0.0 | 2.0 | 0.00 | 0.29 | 0.00 | 89 | 1009.6 | |
| 20260904091557 | 75 | 0.0 | 1.0 | 0.00 | 0.29 | 0.00 | 88 | 1009.6 | |
| 20260904090517 | 75 | 0.0 | 2.0 | 0.00 | 0.29 | 0.00 | 88 | 1009.4 | |
| 20260904085517 | 75 | 0.0 | 2.0 | 0.00 | 0.29 | 0.00 | 89 | 1009.4 | |
| 20260904084517 | 75 | 0 | 1.0 | 2.0 | 0.00 | 0.29 | 0.00 | 89 | 1009.4 |
| 20260904083517 | 75 | 0 | 1.0 | 2.0 | 0.00 | 0.29 | 0.00 | 89 | 1009.3 |
| 20260904082517 | 76 | 0.0 | 1.0 | 0.00 | 0.29 | 0.00 | 89 | 1009.3 | |
| 20260904081517 | 76 | 0 | 1.0 | 2.0 | 0.00 | 0.29 | 0.00 | 89 | 1009.4 |
| 20260904080517 | 76 | 225 | 1.0 | 3.0 | 0.00 | 0.29 | 0.00 | 89 | 1009.4 |
| 20260904075517 | 76 | 0 | 2.0 | 4.0 | 0.00 | 0.29 | 0.00 | 89 | 1009.4 |
| 20260904074517 | 76 | 0 | 2.0 | 3.0 | 0.00 | 0.29 | 0.00 | 89 | 1009.4 |
| 20260904073516 | 76 | 203 | 1.0 | 2.0 | 0.00 | 0.29 | 0.00 | 89 | 1009.4 |
| 20260904072517 | 76 | 203 | 1.0 | 2.0 | 0.00 | 0.29 | 0.00 | 90 | 1009.5 |
| 20260904071516 | 76 | 0.0 | 1.0 | 0.00 | 0.29 | 0.00 | 90 | 1009.5 | |
| 20260904070517 | 76 | 203 | 1.0 | 2.0 | 0.00 | 0.29 | 0.00 | 90 | 1009.3 |
| 20260904065516 | 75 | 203 | 2.0 | 3.0 | 0.00 | 0.29 | 0.00 | 91 | 1009.4 |
| 20260904064517 | 75 | 203 | 2.0 | 3.0 | 0.00 | 0.29 | 0.00 | 91 | 1009.4 |
| 20260904063516 | 75 | 203 | 1.0 | 2.0 | 0.00 | 0.29 | 0.00 | 91 | 1009.5 |
| 20260904062616 | 75 | 180 | 1.0 | 3.0 | 0.00 | 0.29 | 0.00 | 91 | 1009.5 |
| 20260904061516 | 75 | 0.0 | 1.0 | 0.00 | 0.29 | 0.00 | 91 | 1009.5 | |
| 20260904060517 | 75 | 0.0 | 2.0 | 0.00 | 0.29 | 0.00 | 90 | 1009.5 | |
| 20260904055517 | 75 | 180 | 1.0 | 2.0 | 0.00 | 0.29 | 0.00 | 90 | 1009.4 |
| 20260904054516 | 75 | 180 | 1.0 | 2.0 | 0.00 | 0.29 | 0.00 | 90 | 1009.4 |
| 20260904053516 | 75 | 180 | 1.0 | 2.0 | 0.00 | 0.29 | 0.00 | 90 | 1009.3 |
| 20260904052516 | 75 | 180 | 1.0 | 2.0 | 0.00 | 0.29 | 0.00 | 90 | 1009.3 |
| 20260904051536 | 75 | 0.0 | 1.0 | 0.00 | 0.29 | 0.00 | 90 | 1009.2 |